| time (UTC) | temp F | wind direction | speed knots | gust knots | rain 1hr in | rain 24hr in | rain mn in | humidity % | barometer mb |
| 20260507055005 | 57 | 196 | 0.9 | 2.6 | 0.00 | 0.12 | 0.01 | 95 | 1012.6 |
| 20260507054505 | 56 | 198 | 0.0 | 1.7 | 0.00 | 0.12 | 0.01 | 95 | 1012.6 |
| 20260507053505 | 54 | 189 | 1.7 | 2.6 | 0.00 | 0.12 | 0.01 | 95 | 1012.4 |
| 20260507053006 | 54 | 184 | 0.9 | 2.6 | 0.00 | 0.12 | 0.01 | 95 | 1012.4 |
| 20260507051505 | 53 | 117 | 0.0 | 2.6 | 0.00 | 0.13 | 0.01 | 95 | 1012.3 |
| 20260507051005 | 53 | 113 | 0.0 | 2.6 | 0.00 | 0.13 | 0.01 | 95 | 1012.1 |
| 20260507050006 | 52 | 0 | 0.0 | 0.0 | 0.00 | 0.13 | 0.01 | 95 | 1012.1 |
| 20260507045505 | 52 | 0 | 0.0 | 0.0 | 0.00 | 0.13 | 0.01 | 95 | 1012.0 |
| 20260507045005 | 51 | 0 | 0.0 | 0.0 | 0.00 | 0.13 | 0.01 | 95 | 1011.9 |
| 20260507044506 | 51 | 0 | 0.0 | 0.0 | 0.00 | 0.13 | 0.01 | 95 | 1011.9 |
| 20260507044005 | 51 | 0 | 0.0 | 0.0 | 0.00 | 0.13 | 0.01 | 95 | 1011.8 |
| 20260507043505 | 50 | 0 | 0.0 | 0.0 | 0.00 | 0.14 | 0.01 | 95 | 1011.8 |
| 20260507042505 | 50 | 0 | 0.0 | 0.0 | 0.00 | 0.15 | 0.01 | 95 | 1011.7 |
| 20260507041505 | 50 | 0 | 0.0 | 0.0 | 0.00 | 0.15 | 0.01 | 95 | 1011.6 |
| 20260507041005 | 50 | 0 | 0.0 | 0.0 | 0.00 | 0.16 | 0.01 | 95 | 1011.7 |
| 20260507040505 | 50 | 0 | 0.0 | 0.0 | 0.00 | 0.16 | 0.01 | 95 | 1011.5 |
| 20260507040005 | 50 | 0 | 0.0 | 0.0 | 0.00 | 0.16 | 0.01 | 95 | 1011.6 |
| 20260507035505 | 50 | 0 | 0.0 | 0.0 | 0.00 | 0.16 | 0.01 | 95 | 1011.5 |
| 20260507035005 | 50 | 0 | 0.0 | 0.0 | 0.00 | 0.17 | 0.01 | 95 | 1011.5 |
| 20260507034506 | 50 | 18 | 0.0 | 1.7 | 0.00 | 0.17 | 0.01 | 95 | 1011.5 |
| 20260507033505 | 50 | 14 | 0.0 | 2.6 | 0.00 | 0.17 | 0.01 | 95 | 1011.6 |
| 20260507033005 | 51 | 0 | 0.0 | 0.0 | 0.00 | 0.18 | 0.01 | 95 | 1011.5 |
| 20260507032506 | 51 | 0 | 0.0 | 0.0 | 0.00 | 0.18 | 0.01 | 95 | 1011.6 |
| 20260507032005 | 51 | 0 | 0.0 | 0.0 | 0.00 | 0.18 | 0.01 | 95 | 1011.4 |
| 20260507031505 | 51 | 0 | 0.0 | 0.0 | 0.00 | 0.18 | 0.01 | 95 | 1011.4 |
| 20260507031005 | 51 | 0 | 0.0 | 0.0 | 0.00 | 0.19 | 0.01 | 95 | 1011.4 |
| 20260507030506 | 51 | 0 | 0.0 | 0.0 | 0.00 | 0.19 | 0.01 | 95 | 1011.5 |
| 20260507030006 | 52 | 0 | 0.0 | 0.0 | 0.00 | 0.19 | 0.01 | 95 | 1011.6 |
| 20260507025505 | 52 | 0 | 0.0 | 0.0 | 0.00 | 0.19 | 0.01 | 95 | 1011.4 |
| 20260507025006 | 52 | 0 | 0.0 | 0.0 | 0.00 | 0.19 | 0.01 | 95 | 1011.4 |
| 20260507024506 | 52 | 0 | 0.0 | 0.0 | 0.00 | 0.19 | 0.01 | 95 | 1011.4 |
| 20260507024006 | 53 | 0 | 0.0 | 0.0 | 0.00 | 0.19 | 0.01 | 95 | 1011.4 |
| 20260507023505 | 53 | 0 | 0.0 | 0.0 | 0.00 | 0.20 | 0.01 | 95 | 1011.3 |
| 20260507022505 | 54 | 0 | 0.0 | 0.0 | 0.00 | 0.20 | 0.01 | 95 | 1011.6 |
| 20260507022005 | 53 | 0 | 0.0 | 0.0 | 0.00 | 0.20 | 0.01 | 95 | 1011.5 |
| 20260507021505 | 53 | 358 | 0.9 | 2.6 | 0.00 | 0.20 | 0.01 | 95 | 1011.4 |
| 20260507021005 | 53 | 11 | 0.9 | 2.6 | 0.00 | 0.20 | 0.01 | 95 | 1011.6 |
| 20260507020505 | 53 | 19 | 0.0 | 2.6 | 0.00 | 0.20 | 0.01 | 94 | 1011.5 |
| 20260507020005 | 54 | 0 | 0.0 | 0.0 | 0.00 | 0.20 | 0.01 | 94 | 1011.5 |
| 20260507014506 | 55 | 108 | 0.0 | 1.7 | 0.00 | 0.20 | 0.01 | 95 | 1011.5 |
| 20260507013505 | 56 | 85 | 0.9 | 2.6 | 0.00 | 0.20 | 0.01 | 95 | 1011.4 |
| 20260507013005 | 56 | 88 | 0.9 | 3.5 | 0.01 | 0.20 | 0.01 | 95 | 1011.3 |
| 20260507012506 | 56 | 89 | 0.9 | 3.5 | 0.01 | 0.20 | 0.01 | 94 | 1011.3 |
| 20260507010506 | 55 | 59 | 0.9 | 2.6 | 0.01 | 0.20 | 0.01 | 94 | 1011.2 |
| 20260507010005 | 55 | 33 | 0.9 | 2.6 | 0.01 | 0.20 | 0.01 | 94 | 1011.3 |
| 20260507005505 | 54 | 28 | 0.9 | 2.6 | 0.01 | 0.20 | 0.01 | 94 | 1011.2 |
| 20260507005006 | 54 | 36 | 0.0 | 2.6 | 0.01 | 0.20 | 0.01 | 94 | 1011.3 |
| 20260507004005 | 55 | 28 | 0.9 | 2.6 | 0.01 | 0.20 | 0.01 | 94 | 1011.2 |
| 20260507003505 | 56 | 35 | 0.0 | 2.6 | 0.01 | 0.20 | 0.01 | 94 | 1011.1 |
| 20260507002506 | 57 | 354 | 0.9 | 3.5 | 0.00 | 0.19 | 0.00 | 94 | 1011.0 |
| 20260507002006 | 56 | 1 | 0.9 | 3.5 | 0.00 | 0.19 | 0.00 | 94 | 1011.1 |
| 20260507001506 | 56 | 11 | 0.9 | 1.7 | 0.00 | 0.19 | 0.00 | 94 | 1011.2 |
| 20260507001005 | 56 | 8 | 1.7 | 3.5 | 0.00 | 0.19 | 0.00 | 94 | 1011.1 |
| 20260507000505 | 56 | 9 | 1.7 | 3.5 | 0.00 | 0.19 | 0.00 | 94 | 1011.2 |
| 20260507000005 | 56 | 15 | 0.9 | 2.6 | 0.00 | 0.19 | 0.00 | 94 | 1011.2 |
| 20260506235505 | 56 | 0 | 0.0 | 0.0 | 0.00 | 0.19 | 0.00 | 94 | 1011.2 |
| 20260506234006 | 57 | 0 | 0.0 | 0.0 | 0.00 | 0.19 | 0.00 | 94 | 1011.1 |
| 20260506233505 | 57 | 0 | 0.0 | 0.0 | 0.00 | 0.19 | 0.00 | 94 | 1011.1 |
| 20260506233005 | 57 | 0 | 0.0 | 0.0 | 0.00 | 0.19 | 0.00 | 94 | 1011.1 |
| 20260506232005 | 58 | 0 | 0.0 | 0.0 | 0.00 | 0.19 | 0.00 | 94 | 1011.1 |
| 20260506231505 | 58 | 0 | 0.0 | 0.0 | 0.00 | 0.19 | 0.00 | 94 | 1011.3 |
| 20260506231005 | 58 | 0 | 0.0 | 0.0 | 0.00 | 0.19 | 0.00 | 94 | 1011.0 |
| 20260506230505 | 58 | 0 | 0.0 | 0.0 | 0.00 | 0.19 | 0.00 | 94 | 1010.9 |
| 20260506230005 | 58 | 0 | 0.0 | 0.0 | 0.00 | 0.19 | 0.00 | 94 | 1011.0 |
| 20260506225505 | 58 | 0 | 0.0 | 0.0 | 0.00 | 0.19 | 0.00 | 93 | 1011.0 |
| 20260506225005 | 58 | 0 | 0.0 | 0.0 | 0.00 | 0.19 | 0.00 | 93 | 1011.0 |
| 20260506224505 | 58 | 0 | 0.0 | 0.0 | 0.00 | 0.19 | 0.00 | 93 | 1011.0 |
| 20260506224006 | 58 | 0 | 0.0 | 0.0 | 0.00 | 0.19 | 0.00 | 94 | 1011.0 |
| 20260506223505 | 58 | 6 | 0.0 | 0.9 | 0.00 | 0.19 | 0.00 | 93 | 1011.0 |
| 20260506222005 | 59 | 67 | 0.9 | 2.6 | 0.00 | 0.20 | 0.00 | 93 | 1011.1 |
| 20260506221505 | 59 | 221 | 0.0 | 1.7 | 0.00 | 0.20 | 0.00 | 93 | 1011.0 |
| 20260506221006 | 59 | 222 | 0.0 | 1.7 | 0.00 | 0.20 | 0.00 | 93 | 1011.1 |
| 20260506220505 | 59 | 211 | 0.9 | 2.6 | 0.00 | 0.20 | 0.00 | 93 | 1011.0 |
| 20260506220008 | 59 | 101 | 2.6 | 4.3 | 0.00 | 0.20 | 0.00 | 93 | 1011.1 |
| 20260506215006 | 59 | 62 | 0.0 | 3.5 | 0.00 | 0.20 | 0.20 | 93 | 1011.0 |
| 20260506214505 | 60 | 0 | 0.0 | 0.0 | 0.00 | 0.20 | 0.20 | 93 | 1011.1 |
| 20260506214005 | 60 | 0 | 0.0 | 0.0 | 0.00 | 0.20 | 0.20 | 93 | 1011.1 |
| 20260506213505 | 60 | 30 | 0.0 | 1.7 | 0.00 | 0.20 | 0.20 | 93 | 1011.0 |
| 20260506212506 | 60 | 41 | 0.9 | 2.6 | 0.00 | 0.20 | 0.20 | 93 | 1011.0 |
| 20260506212005 | 60 | 41 | 1.7 | 3.5 | 0.00 | 0.20 | 0.20 | 93 | 1011.1 |
| 20260506210505 | 61 | 25 | 0.0 | 2.6 | 0.00 | 0.20 | 0.20 | 93 | 1011.1 |
| 20260506210006 | 61 | 88 | 1.7 | 7.8 | 0.00 | 0.20 | 0.20 | 93 | 1010.9 |
| 20260506205505 | 61 | 88 | 3.5 | 7.8 | 0.00 | 0.20 | 0.20 | 93 | 1010.8 |
| 20260506205005 | 61 | 90 | 1.7 | 7.8 | 0.00 | 0.20 | 0.20 | 93 | 1010.8 |
| 20260506204505 | 61 | 219 | 0.9 | 2.6 | 0.00 | 0.20 | 0.20 | 93 | 1010.7 |
| 20260506204006 | 61 | 89 | 1.7 | 4.3 | 0.00 | 0.20 | 0.20 | 93 | 1010.7 |
| 20260506203506 | 61 | 61 | 2.6 | 4.3 | 0.00 | 0.20 | 0.20 | 93 | 1010.5 |
| 20260506203005 | 61 | 29 | 1.7 | 4.3 | 0.00 | 0.20 | 0.20 | 93 | 1010.5 |
| 20260506202505 | 61 | 284 | 1.7 | 2.6 | 0.00 | 0.20 | 0.20 | 93 | 1010.5 |
| 20260506201506 | 61 | 55 | 1.7 | 2.6 | 0.00 | 0.20 | 0.20 | 93 | 1010.4 |
| 20260506201006 | 61 | 72 | 1.7 | 3.5 | 0.00 | 0.20 | 0.20 | 93 | 1010.3 |
| 20260506200505 | 61 | 72 | 2.6 | 4.3 | 0.00 | 0.20 | 0.20 | 93 | 1010.2 |
| 20260506200005 | 61 | 67 | 3.5 | 4.3 | 0.00 | 0.20 | 0.20 | 93 | 1010.1 |
| 20260506195506 | 61 | 56 | 2.6 | 4.3 | 0.00 | 0.20 | 0.20 | 93 | 1010.1 |
| 20260506195005 | 62 | 40 | 1.7 | 3.5 | 0.00 | 0.20 | 0.20 | 93 | 1010.1 |
| 20260506194505 | 62 | 41 | 2.6 | 4.3 | 0.00 | 0.20 | 0.20 | 93 | 1010.0 |
| 20260506194005 | 62 | 47 | 4.3 | 7.8 | 0.00 | 0.20 | 0.20 | 92 | 1010.1 |
| 20260506193506 | 62 | 52 | 5.2 | 8.7 | 0.00 | 0.20 | 0.20 | 92 | 1009.9 |
| 20260506193005 | 62 | 54 | 5.2 | 8.7 | 0.00 | 0.20 | 0.20 | 92 | 1009.8 |
| 20260506192505 | 62 | 55 | 5.2 | 7.8 | 0.00 | 0.20 | 0.20 | 92 | 1009.7 |
| 20260506192005 | 62 | 59 | 6.1 | 7.8 | 0.00 | 0.20 | 0.20 | 92 | 1009.6 |
| 20260506191506 | 62 | 63 | 6.1 | 7.8 | 0.00 | 0.20 | 0.20 | 92 | 1009.6 |
| 20260506191005 | 62 | 62 | 6.1 | 9.6 | 0.00 | 0.20 | 0.20 | 92 | 1009.5 |
| 20260506190505 | 62 | 57 | 6.1 | 9.6 | 0.00 | 0.20 | 0.20 | 91 | 1009.4 |
| 20260506190006 | 61 | 55 | 4.3 | 9.6 | 0.00 | 0.20 | 0.20 | 90 | 1009.4 |
| 20260506185506 | 61 | 54 | 4.3 | 7.0 | 0.00 | 0.20 | 0.20 | 89 | 1009.4 |
| 20260506185006 | 61 | 48 | 4.3 | 7.0 | 0.00 | 0.20 | 0.20 | 88 | 1009.3 |
| 20260506184505 | 61 | 47 | 4.3 | 7.0 | 0.00 | 0.20 | 0.20 | 87 | 1009.2 |
| 20260506184005 | 61 | 53 | 4.3 | 7.0 | 0.00 | 0.20 | 0.20 | 87 | 1009.1 |
| 20260506183505 | 62 | 55 | 4.3 | 7.8 | 0.00 | 0.20 | 0.20 | 87 | 1009.0 |
| 20260506183006 | 62 | 54 | 6.1 | 8.7 | 0.00 | 0.20 | 0.20 | 86 | 1009.0 |
| 20260506182506 | 62 | 54 | 7.0 | 8.7 | 0.00 | 0.20 | 0.20 | 86 | 1009.0 |
| 20260506182006 | 63 | 57 | 7.0 | 8.7 | 0.00 | 0.20 | 0.20 | 86 | 1008.8 |
| 20260506181505 | 63 | 57 | 5.2 | 7.8 | 0.00 | 0.20 | 0.20 | 86 | 1008.7 |
| 20260506181006 | 63 | 60 | 5.2 | 8.7 | 0.00 | 0.20 | 0.20 | 86 | 1008.8 |
| 20260506180506 | 64 | 64 | 6.1 | 8.7 | 0.00 | 0.20 | 0.20 | 86 | 1008.7 |
| 20260506175505 | 64 | 60 | 4.3 | 9.6 | 0.00 | 0.20 | 0.20 | 84 | 1008.6 |
| 20260506175005 | 65 | 60 | 3.5 | 7.0 | 0.00 | 0.20 | 0.20 | 84 | 1008.5 |
| 20260506174006 | 65 | 70 | 6.1 | 9.6 | 0.00 | 0.20 | 0.20 | 81 | 1008.4 |
| 20260506173506 | 65 | 72 | 6.1 | 9.6 | 0.00 | 0.20 | 0.20 | 83 | 1008.5 |
| 20260506173006 | 65 | 66 | 5.2 | 9.6 | 0.00 | 0.20 | 0.20 | 83 | 1008.5 |
| 20260506172505 | 65 | 61 | 6.1 | 8.7 | 0.00 | 0.20 | 0.20 | 85 | 1008.5 |
| 20260506171506 | 65 | 66 | 6.1 | 8.7 | 0.00 | 0.20 | 0.20 | 86 | 1008.3 |
| 20260506171006 | 65 | 72 | 7.8 | 11.3 | 0.00 | 0.20 | 0.20 | 86 | 1008.3 |
| 20260506170506 | 65 | 72 | 8.7 | 11.3 | 0.00 | 0.20 | 0.20 | 86 | 1008.2 |
| 20260506170005 | 65 | 72 | 8.7 | 12.2 | 0.00 | 0.20 | 0.20 | 87 | 1008.1 |
| 20260506165005 | 65 | 55 | 8.7 | 13.0 | 0.00 | 0.20 | 0.20 | 86 | 1008.2 |
| 20260506164506 | 65 | 51 | 6.1 | 11.3 | 0.00 | 0.20 | 0.20 | 84 | 1008.2 |
| 20260506163506 | 65 | 339 | 3.5 | 8.7 | 0.01 | 0.20 | 0.20 | 80 | 1008.3 |
| 20260506163006 | 65 | 344 | 2.6 | 6.1 | 0.01 | 0.20 | 0.20 | 82 | 1008.3 |
| 20260506162505 | 65 | 56 | 5.2 | 13.0 | 0.01 | 0.20 | 0.20 | 83 | 1008.3 |
| 20260506162005 | 65 | 80 | 7.0 | 13.0 | 0.01 | 0.20 | 0.20 | 84 | 1008.2 |
| 20260506161506 | 66 | 76 | 6.1 | 12.2 | 0.01 | 0.20 | 0.20 | 80 | 1008.3 |
| 20260506161006 | 65 | 54 | 5.2 | 7.8 | 0.01 | 0.20 | 0.20 | 80 | 1008.0 |
| 20260506160505 | 64 | 42 | 6.1 | 8.7 | 0.01 | 0.20 | 0.20 | 81 | 1007.9 |
| 20260506160005 | 64 | 39 | 7.0 | 11.3 | 0.01 | 0.20 | 0.20 | 81 | 1008.1 |
| 20260506155506 | 64 | 34 | 7.0 | 11.3 | 0.01 | 0.20 | 0.20 | 81 | 1008.1 |
| 20260506154005 | 66 | 5 | 4.3 | 12.2 | 0.00 | 0.19 | 0.19 | 80 | 1008.5 |
| 20260506153506 | 68 | 58 | 6.1 | 12.2 | 0.00 | 0.19 | 0.19 | 82 | 1008.2 |
| 20260506152506 | 69 | 71 | 11.3 | 17.4 | 0.00 | 0.19 | 0.19 | 84 | 1007.5 |
| 20260506152006 | 69 | 66 | 9.6 | 13.9 | 0.00 | 0.19 | 0.19 | 83 | 1007.5 |
| 20260506150005 | 71 | 91 | 7.0 | 9.6 | 0.00 | 0.19 | 0.19 | 78 | 1007.7 |
| 20260506145505 | 71 | 101 | 4.3 | 9.6 | 0.00 | 0.19 | 0.19 | 71 | 1007.8 |
| 20260506145006 | 71 | 110 | 1.7 | 7.0 | 0.00 | 0.19 | 0.19 | 75 | 1007.8 |
| 20260506144505 | 71 | 107 | 3.5 | 9.6 | 0.00 | 0.19 | 0.19 | 73 | 1007.9 |
| 20260506144006 | 71 | 107 | 4.3 | 9.6 | 0.00 | 0.19 | 0.19 | 75 | 1008.1 |
| 20260506143505 | 71 | 114 | 3.5 | 7.0 | 0.00 | 0.19 | 0.19 | 74 | 1008.2 |
| 20260506142505 | 70 | 105 | 7.0 | 13.0 | 0.00 | 0.19 | 0.19 | 78 | 1008.1 |
| 20260506142005 | 69 | 91 | 7.8 | 13.0 | 0.00 | 0.19 | 0.19 | 81 | 1008.2 |
| 20260506141506 | 69 | 90 | 7.8 | 11.3 | 0.00 | 0.19 | 0.19 | 83 | 1008.2 |
| 20260506140505 | 70 | 89 | 7.0 | 11.3 | 0.00 | 0.19 | 0.19 | 85 | 1008.4 |
| 20260506140005 | 69 | 90 | 7.8 | 11.3 | 0.00 | 0.19 | 0.19 | 83 | 1008.6 |
| 20260506135506 | 69 | 99 | 7.0 | 10.4 | 0.00 | 0.19 | 0.19 | 83 | 1008.5 |
| 20260506135006 | 69 | 100 | 7.8 | 12.2 | 0.00 | 0.19 | 0.19 | 85 | 1008.7 |
| 20260506134506 | 69 | 95 | 8.7 | 12.2 | 0.00 | 0.19 | 0.19 | 85 | 1008.7 |
| 20260506134005 | 68 | 92 | 8.7 | 12.2 | 0.00 | 0.19 | 0.19 | 85 | 1008.7 |
| 20260506133505 | 68 | 99 | 8.7 | 12.2 | 0.00 | 0.19 | 0.19 | 85 | 1008.8 |
| 20260506133005 | 69 | 100 | 8.7 | 13.0 | 0.00 | 0.19 | 0.19 | 86 | 1008.8 |
| 20260506132505 | 69 | 100 | 9.6 | 13.0 | 0.00 | 0.19 | 0.19 | 87 | 1008.9 |
| 20260506132005 | 69 | 105 | 9.6 | 14.8 | 0.00 | 0.19 | 0.19 | 87 | 1008.9 |
| 20260506131505 | 69 | 103 | 8.7 | 14.8 | 0.00 | 0.19 | 0.19 | 87 | 1009.0 |
| 20260506131005 | 69 | 105 | 8.7 | 13.0 | 0.00 | 0.19 | 0.19 | 86 | 1008.9 |
| 20260506130005 | 68 | 104 | 8.7 | 12.2 | 0.00 | 0.19 | 0.19 | 85 | 1008.9 |
| 20260506125506 | 68 | 103 | 7.8 | 12.2 | 0.00 | 0.19 | 0.19 | 85 | 1009.0 |
| 20260506125005 | 68 | 101 | 8.7 | 14.8 | 0.00 | 0.19 | 0.19 | 88 | 1009.1 |
| 20260506124005 | 67 | 99 | 9.6 | 13.0 | 0.00 | 0.19 | 0.19 | 88 | 1009.0 |
| 20260506123505 | 67 | 92 | 10.4 | 14.8 | 0.00 | 0.19 | 0.19 | 89 | 1008.9 |
| 20260506123005 | 66 | 96 | 12.2 | 17.4 | 0.02 | 0.19 | 0.19 | 90 | 1009.0 |
| 20260506122505 | 66 | 101 | 13.0 | 17.4 | 0.06 | 0.19 | 0.19 | 91 | 1009.0 |
| 20260506122005 | 66 | 99 | 13.9 | 18.2 | 0.07 | 0.19 | 0.19 | 92 | 1009.0 |
| 20260506121505 | 65 | 98 | 13.9 | 18.2 | 0.09 | 0.19 | 0.19 | 91 | 1008.9 |
| 20260506121005 | 66 | 98 | 13.9 | 17.4 | 0.10 | 0.19 | 0.19 | 93 | 1008.9 |
| 20260506120505 | 65 | 101 | 13.0 | 17.4 | 0.10 | 0.19 | 0.19 | 93 | 1008.9 |
| 20260506120005 | 64 | 101 | 13.0 | 16.5 | 0.10 | 0.19 | 0.19 | 93 | 1008.9 |
| 20260506115506 | 64 | 94 | 13.9 | 18.2 | 0.10 | 0.19 | 0.19 | 93 | 1008.8 |
| 20260506115006 | 63 | 90 | 15.6 | 21.7 | 0.10 | 0.19 | 0.19 | 93 | 1008.9 |
| 20260506114505 | 63 | 90 | 18.2 | 25.2 | 0.10 | 0.19 | 0.19 | 93 | 1008.7 |
| 20260506114005 | 63 | 88 | 19.1 | 25.2 | 0.10 | 0.19 | 0.19 | 93 | 1008.7 |
| 20260506113005 | 63 | 104 | 12.2 | 21.7 | 0.07 | 0.16 | 0.16 | 92 | 1009.1 |
| 20260506112006 | 63 | 87 | 9.6 | 13.9 | 0.03 | 0.12 | 0.12 | 91 | 1009.7 |
| 20260506111006 | 63 | 80 | 5.2 | 8.7 | 0.00 | 0.09 | 0.09 | 91 | 1010.0 |
| 20260506110005 | 63 | 87 | 7.8 | 11.3 | 0.00 | 0.09 | 0.09 | 91 | 1010.0 |
| 20260506105505 | 63 | 89 | 9.6 | 13.0 | 0.00 | 0.09 | 0.09 | 91 | 1010.0 |
| 20260506105005 | 63 | 88 | 10.4 | 13.9 | 0.00 | 0.09 | 0.09 | 90 | 1010.0 |
| 20260506104505 | 63 | 91 | 11.3 | 15.6 | 0.00 | 0.09 | 0.09 | 90 | 1009.9 |
| 20260506104005 | 63 | 90 | 11.3 | 15.6 | 0.00 | 0.09 | 0.09 | 90 | 1009.8 |
| 20260506103505 | 63 | 90 | 10.4 | 13.9 | 0.00 | 0.09 | 0.09 | 89 | 1009.8 |
| 20260506103006 | 63 | 93 | 11.3 | 13.9 | 0.00 | 0.09 | 0.09 | 89 | 1009.8 |
| 20260506102505 | 63 | 96 | 11.3 | 14.8 | 0.00 | 0.09 | 0.09 | 88 | 1010.0 |
| 20260506102005 | 63 | 102 | 11.3 | 15.6 | 0.00 | 0.09 | 0.09 | 88 | 1010.1 |
| 20260506101505 | 64 | 102 | 11.3 | 15.6 | 0.00 | 0.09 | 0.09 | 88 | 1010.2 |
| 20260506100505 | 64 | 99 | 11.3 | 14.8 | 0.00 | 0.09 | 0.09 | 88 | 1010.1 |
| 20260506100005 | 63 | 93 | 11.3 | 14.8 | 0.00 | 0.09 | 0.09 | 88 | 1010.0 |
| 20260506095505 | 63 | 91 | 11.3 | 14.8 | 0.00 | 0.09 | 0.09 | 89 | 1010.0 |
| 20260506095005 | 63 | 97 | 10.4 | 14.8 | 0.00 | 0.09 | 0.09 | 89 | 1010.1 |
| 20260506094505 | 63 | 95 | 11.3 | 14.8 | 0.00 | 0.09 | 0.09 | 89 | 1010.1 |
| 20260506094005 | 63 | 90 | 11.3 | 14.8 | 0.00 | 0.09 | 0.09 | 90 | 1010.0 |
| 20260506093506 | 63 | 94 | 11.3 | 16.5 | 0.00 | 0.09 | 0.09 | 90 | 1010.1 |
| 20260506093005 | 63 | 98 | 11.3 | 16.5 | 0.00 | 0.09 | 0.09 | 90 | 1010.1 |
| 20260506092005 | 63 | 87 | 11.3 | 13.9 | 0.00 | 0.09 | 0.09 | 90 | 1010.0 |
| 20260506091506 | 62 | 83 | 11.3 | 13.9 | 0.00 | 0.09 | 0.09 | 90 | 1010.0 |
| 20260506091006 | 63 | 81 | 11.3 | 14.8 | 0.00 | 0.09 | 0.09 | 90 | 1010.0 |
| 20260506090505 | 63 | 81 | 10.4 | 14.8 | 0.00 | 0.09 | 0.09 | 90 | 1009.9 |
| 20260506090005 | 63 | 83 | 9.6 | 13.0 | 0.00 | 0.09 | 0.09 | 91 | 1009.9 |
| 20260506085006 | 62 | 87 | 9.6 | 14.8 | 0.00 | 0.11 | 0.09 | 91 | 1010.0 |
| 20260506084506 | 62 | 84 | 9.6 | 12.2 | 0.00 | 0.12 | 0.09 | 91 | 1010.0 |
| 20260506084006 | 62 | 83 | 9.6 | 12.2 | 0.00 | 0.13 | 0.09 | 91 | 1010.0 |
| 20260506083006 | 62 | 81 | 9.6 | 12.2 | 0.00 | 0.15 | 0.09 | 92 | 1009.9 |
| 20260506082505 | 61 | 88 | 8.7 | 12.2 | 0.00 | 0.16 | 0.09 | 92 | 1009.7 |
| 20260506082005 | 61 | 92 | 7.8 | 11.3 | 0.00 | 0.17 | 0.09 | 92 | 1009.9 |
| 20260506081005 | 61 | 90 | 9.6 | 11.3 | 0.00 | 0.18 | 0.09 | 92 | 1010.1 |
| 20260506073505 | 61 | 98 | 10.4 | 13.0 | 0.00 | 0.27 | 0.09 | 92 | 1009.8 |
| 20260506073006 | 61 | 99 | 10.4 | 13.9 | 0.00 | 0.28 | 0.09 | 93 | 1009.8 |
| 20260506072505 | 61 | 95 | 10.4 | 13.9 | 0.00 | 0.29 | 0.09 | 93 | 1009.8 |
| 20260506071506 | 61 | 85 | 9.6 | 13.9 | 0.00 | 0.31 | 0.09 | 94 | 1009.8 |
| 20260506071006 | 61 | 81 | 8.7 | 13.9 | 0.00 | 0.31 | 0.09 | 94 | 1009.8 |
| 20260506062505 | 59 | 92 | 7.8 | 10.4 | 0.00 | 0.33 | 0.09 | 95 | 1010.1 |
| 20260506062005 | 60 | 91 | 7.8 | 10.4 | 0.00 | 0.33 | 0.09 | 95 | 1010.1 |
| 20260506061505 | 59 | 90 | 7.0 | 9.6 | 0.01 | 0.33 | 0.09 | 95 | 1010.1 |
| 20260506060505 | 59 | 90 | 6.1 | 7.8 | 0.01 | 0.33 | 0.09 | 95 | 1010.3 |